| time (UTC) | temp F | wind direction | speed MPH | gust MPH | rain 1hr in | rain 24hr in | rain mn in | humidity % | barometer mb |
| 20260505074527 | 62 | 213 | 1.0 | 7.0 | 0.00 | 0.00 | 0.00 | 54 | 1004.9 |
| 20260505073029 | 63 | 187 | 1.0 | 5.0 | 0.00 | 0.00 | 0.00 | 53 | 1004.8 |
| 20260505071520 | 63 | 227 | 4.0 | 10.0 | 0.00 | 0.00 | 0.00 | 52 | 1004.7 |
| 20260505070020 | 63 | 209 | 5.0 | 10.0 | 0.00 | 0.00 | 0.00 | 52 | 1004.8 |
| 20260505064520 | 63 | 183 | 5.0 | 14.0 | 0.00 | 0.00 | 0.00 | 51 | 1004.8 |
| 20260505063018 | 64 | 217 | 9.0 | 16.0 | 0.00 | 0.00 | 0.00 | 50 | 1004.9 |
| 20260505061515 | 64 | 218 | 11.0 | 19.0 | 0.00 | 0.00 | 0.00 | 49 | 1004.8 |
| 20260505060019 | 64 | 246 | 9.0 | 20.0 | 0.00 | 0.00 | 0.00 | 49 | 1004.8 |
| 20260505054512 | 64 | 235 | 6.0 | 11.0 | 0.00 | 0.00 | 0.00 | 49 | 1004.9 |
| 20260505053010 | 64 | 214 | 6.0 | 15.0 | 0.00 | 0.00 | 0.00 | 49 | 1004.9 |
| 20260505051510 | 64 | 215 | 8.0 | 15.0 | 0.00 | 0.00 | 0.00 | 48 | 1005.0 |
| 20260505041558 | 65 | 233 | 4.0 | 11.0 | 0.00 | 0.00 | 0.00 | 47 | 1004.8 |
| 20260505040104 | 65 | 242 | 6.0 | 18.0 | 0.00 | 0.00 | 0.00 | 47 | 1004.9 |
| 20260505034557 | 64 | 192 | 8.0 | 17.0 | 0.00 | 0.00 | 0.00 | 47 | 1004.7 |
| 20260505033057 | 64 | 205 | 4.0 | 8.0 | 0.00 | 0.00 | 0.00 | 47 | 1005.0 |
| 20260505031559 | 65 | 213 | 5.0 | 10.0 | 0.00 | 0.00 | 0.00 | 46 | 1004.9 |
| 20260505030059 | 65 | 231 | 5.0 | 12.0 | 0.00 | 0.00 | 0.00 | 46 | 1004.9 |
| 20260505024554 | 65 | 236 | 5.0 | 14.0 | 0.00 | 0.00 | 0.00 | 45 | 1005.1 |
| 20260505023052 | 66 | 214 | 8.0 | 20.0 | 0.00 | 0.00 | 0.00 | 44 | 1005.2 |
| 20260505021551 | 66 | 205 | 8.0 | 16.0 | 0.00 | 0.00 | 0.00 | 43 | 1005.3 |
| 20260505020052 | 66 | 200 | 9.0 | 18.0 | 0.00 | 0.00 | 0.00 | 42 | 1005.3 |
| 20260505014603 | 67 | 219 | 8.0 | 14.0 | 0.00 | 0.00 | 0.00 | 41 | 1005.4 |
| 20260505013050 | 67 | 233 | 9.0 | 17.0 | 0.00 | 0.00 | 0.00 | 41 | 1005.0 |
| 20260505011552 | 67 | 184 | 5.0 | 13.0 | 0.00 | 0.00 | 0.00 | 41 | 1005.1 |
| 20260505010048 | 67 | 229 | 8.0 | 15.0 | 0.00 | 0.00 | 0.00 | 41 | 1004.9 |
| 20260505004554 | 67 | 207 | 7.0 | 14.0 | 0.00 | 0.00 | 0.00 | 40 | 1004.8 |
| 20260505003052 | 68 | 211 | 5.0 | 14.0 | 0.00 | 0.00 | 0.00 | 40 | 1004.8 |
| 20260505001548 | 68 | 220 | 6.0 | 14.0 | 0.00 | 0.00 | 0.00 | 39 | 1004.6 |
| 20260505000052 | 69 | 204 | 8.0 | 17.0 | 0.00 | 0.00 | 0.00 | 38 | 1004.5 |
| 20260504234547 | 69 | 217 | 7.0 | 15.0 | 0.00 | 0.00 | 0.00 | 37 | 1004.4 |
| 20260504233045 | 70 | 226 | 5.0 | 14.0 | 0.00 | 0.00 | 0.00 | 37 | 1004.3 |
| 20260504231543 | 71 | 222 | 9.0 | 19.0 | 0.00 | 0.00 | 0.00 | 35 | 1004.3 |
| 20260504230049 | 71 | 220 | 6.0 | 10.0 | 0.00 | 0.00 | 0.00 | 35 | 1004.2 |
| 20260504224547 | 72 | 211 | 5.0 | 16.0 | 0.00 | 0.00 | 0.00 | 34 | 1004.1 |
| 20260504223042 | 72 | 216 | 7.0 | 13.0 | 0.00 | 0.00 | 0.00 | 34 | 1004.2 |
| 20260504221542 | 72 | 227 | 7.0 | 14.0 | 0.00 | 0.00 | 0.00 | 33 | 1004.1 |
| 20260504220040 | 73 | 208 | 5.0 | 13.0 | 0.00 | 0.00 | 0.00 | 33 | 1004.1 |
| 20260504214546 | 73 | 183 | 5.0 | 14.0 | 0.00 | 0.00 | 0.00 | 32 | 1004.1 |
| 20260504213039 | 73 | 257 | 3.0 | 12.0 | 0.00 | 0.00 | 0.00 | 31 | 1004.2 |
| 20260504211537 | 73 | 242 | 7.0 | 21.0 | 0.00 | 0.00 | 0.00 | 31 | 1004.4 |
| 20260504210053 | 73 | 224 | 4.0 | 16.0 | 0.00 | 0.00 | 0.00 | 31 | 1004.5 |
| 20260504204551 | 73 | 271 | 4.0 | 13.0 | 0.00 | 0.00 | 0.00 | 30 | 1004.4 |
| 20260504203035 | 73 | 158 | 5.0 | 15.0 | 0.00 | 0.00 | 0.00 | 31 | 1005.0 |
| 20260504201531 | 74 | 220 | 4.0 | 9.0 | 0.00 | 0.00 | 0.00 | 30 | 1005.1 |
| 20260504200029 | 73 | 233 | 9.0 | 17.0 | 0.00 | 0.00 | 0.00 | 30 | 1005.2 |
| 20260504194526 | 73 | 243 | 3.0 | 9.0 | 0.00 | 0.00 | 0.00 | 34 | 1005.4 |
| 20260504193025 | 72 | 232 | 6.0 | 20.0 | 0.00 | 0.00 | 0.00 | 32 | 1005.6 |
| 20260504191522 | 72 | 247 | 9.0 | 20.0 | 0.00 | 0.00 | 0.00 | 33 | 1005.8 |
| 20260504190022 | 72 | 234 | 9.0 | 20.0 | 0.00 | 0.00 | 0.00 | 32 | 1006.0 |
| 20260504184521 | 72 | 253 | 8.0 | 15.0 | 0.00 | 0.00 | 0.00 | 34 | 1005.9 |
| 20260504183017 | 71 | 291 | 4.0 | 11.0 | 0.00 | 0.00 | 0.00 | 36 | 1006.0 |
| 20260504181515 | 70 | 259 | 6.0 | 15.0 | 0.00 | 0.00 | 0.00 | 36 | 1006.1 |
| 20260504180013 | 70 | 251 | 5.0 | 14.0 | 0.00 | 0.00 | 0.00 | 35 | 1006.3 |
| 20260504174512 | 70 | 229 | 6.0 | 13.0 | 0.00 | 0.00 | 0.00 | 37 | 1006.7 |
| 20260504173009 | 70 | 233 | 8.0 | 17.0 | 0.00 | 0.00 | 0.00 | 36 | 1006.5 |
| 20260504171506 | 69 | 310 | 4.0 | 21.0 | 0.00 | 0.00 | 0.00 | 38 | 1006.7 |
| 20260504081541 | 38 | 162 | 0.0 | 1.0 | 0.00 | 0.00 | 0.00 | 77 | 1010.4 |